Temp
29 29 29 30 30 30 29 29 29 29 29 28 28 28 28 29 30 30 31 32 33 34 34 34 34 34 34 34 34 34 34 34 34 34 33 34 33 33 32 32 32 33
27 28 27 28 28 28 28 28 27 27 26 27 27 27 28 28 28 29 29 31 32 32 32 32 32 33 33 33 33 33 33 33 33 34 33 33 33 33 32 32 32 33
26 25 25 25 25 25 25 26 26 26 26 25 26 27 27 28 28 29 30 30 30 30 31 31 31 32 32 32 32 32 33 32 33 33 32 32 32 32 33 32 32 32
24 24 24 24 24 24 25 25 25 25 26 25 25 25 26 26 27 27 27 28 28 29 29 30 30 30 31 31 32 31 32 32 32 32 32 32 33 32 33 33 32 32
23 23 23 23 23 24 24 24 23 23 24 24 24 24 23 24 24 25 25 26 27 27 27 27 28 29 29 30 31 31 32 32 32 32 31 31 32 32 33 32 32 31
22 22 22 22 23 23 22 22 22 22 22 22 22 23 23 23 23 23 23 24 24 25 25 26 26 27 27 27 28 28 28 28 29 29 30 30 31 32 32 32 31 31
20 21 21 22 22 22 21 21 21 21 21 22 22 21 21 21 21 21 22 22 22 23 23 23 23 24 25 25 25 25 26 27 27 27 27 28 29 29 31 30 30 30
19 19 19 20 20 20 20 20 20 20 20 20 21 21 21 20 20 21 21 21 21 21 22 22 22 22 23 23 23 23 24 25 25 25 25 25 26 26 26 27 28 28
17 16 17 17 18 18 18 18 18 19 19 19 19 20 20 19 19 19 19 20 19 19 20 20 20 20 21 22 22 22 22 23 24 24 23 23 23 23 24 25 24 25
16 16 15 15 14 16 16 17 18 18 19 18 18 19 19 18 18 18 18 18 18 18 18 18 18 19 19 20 21 21 21 22 22 23 23 23 23 23 23 23 22 23
13 13 13 13 12 13 13 15 15 15 16 15 15 15 17 15 15 14 13 15 15 16 17 17 17 18 18 19 19 21 21 21 21 22 22 22 22 22 23 23 22 22
12 11 11 10 11 11 11 11 11 11 11 11 11 12 15 14 13 12 13 12 14 15 16 16 16 17 17 17 18 19 20 21 21 21 21 21 22 22 22 22 22 22
10 10 10 10 10 10 10 10 9 10 9 9 10 10 10 11 10 10 11 11 13 14 15 16 16 16 16 16 16 17 19 20 20 20 20 20 21 22 22 22 22 22
10 10 10 10 10 10 9 9 9 8 8 9 10 9 9 11 13 12 10 11 11 11 13 14 15 15 15 14 15 16 17 19 19 19 19 19 19 20 20 20 20 21
9 9 10 10 9 9 9 9 9 8 9 9 9 9 10 10 12 12 11 11 11 12 11 12 12 13 14 14 14 16 17 18 18 18 18 17 17 18 19 19 19 19
9 9 9 9 8 8 7 8 8 8 8 8 9 9 8 9 9 11 11 12 12 12 12 13 14 15 16 15 16 16 17 17 17 17 17 17 17 17 17 18 18 18
8 8 8 8 8 8 7 8 8 8 7 8 8 8 8 8 9 8 8 10 10 9 10 11 13 15 16 17 18 19 17 16 16 16 17 17 17 16 15 16 16 17
9 9 8 8 8 8 8 7 7 6 6 6 7 7 8 8 7 7 8 8 8 8 7 8 9 14 16 17 18 19 18 17 16 15 15 16 16 15 15 14 14 14
9 9 8 8 9 9 8 7 6 7 6 6 6 6 6 5 6 8 6 7 7 5 5 5 6 13 15 17 17 18 19 18 15 15 15 15 15 15 14 13 12 12
11 10 10 10 10 10 10 8 8 7 7 7 7 6 6 6 5 6 7 6 6 4 4 4 4 11 13 16 17 18 18 18 14 14 13 13 13 13 13 12 12 11
13 12 12 11 11 11 9 8 9 7 8 8 7 7 7 6 6 5 6 7 6 5 3 4 5 11 12 14 16 17 18 17 13 12 11 11 11 11 11 11 11 10
14 14 13 10 11 9 9 9 8 8 8 8 8 8 7 5 7 7 6 6 6 5 4 4 5 10 12 13 15 16 17 12 10 10 9 10 12 12 10 10 9 9
14 12 11 10 11 10 8 8 8 8 8 9 7 8 7 7 7 7 7 6 6 5 4 4 4 8 11 12 13 16 14 6 7 7 7 6 8 9 9 9 8 8
13 11 9 9 8 8 9 9 9 8 8 8 7 6 7 7 6 6 6 6 6 5 5 4 4 7 10 11 12 15 13 7 7 7 5 5 5 6 6 7 8 12
12 10 9 9 9 8 8 8 8 8 8 8 8 6 6 5 7 6 6 6 6 6 9 7 4 6 10 10 11 13 12 5 5 3 2 3 3 4 4 6 7 10
11 10 10 9 8 8 8 8 8 8 8 9 8 7 6 5 6 5 4 4 5 5 5 5 4 4 6 9 10 10 12 8 4 3 2 1 0 1 1 1 3 4
MSLP
1018.63 1018.59 1018.55 1018.43 1018.47 1018.47 1018.39 1018.35 1018.27 1018.27 1018.27 1018.23 1018.11 1018.11 1018.03 1017.95 1017.75 1017.59 1017.43 1017.27 1017.07 1016.91 1016.83 1016.71 1016.59 1016.51 1016.39 1016.23 1016.11 1016.11 1016.27 1016.27 1016.15 1016.07 1016.15 1016.19 1016.27 1016.31 1016.31 1016.35 1016.39 1016.39
1019.15 1019.11 1019.07 1018.95 1018.91 1018.87 1018.95 1018.91 1018.95 1018.83 1018.83 1018.75 1018.75 1018.59 1018.47 1018.27 1018.15 1017.99 1017.87 1017.67 1017.47 1017.39 1017.27 1017.19 1017.11 1016.99 1016.83 1016.59 1016.43 1016.31 1016.31 1016.31 1016.23 1016.07 1016.15 1016.19 1016.23 1016.23 1016.23 1016.23 1016.31 1016.35
1019.63 1019.55 1019.47 1019.47 1019.43 1019.35 1019.39 1019.43 1019.35 1019.27 1019.15 1019.15 1019.03 1018.91 1018.87 1018.67 1018.59 1018.43 1018.27 1018.07 1017.91 1017.71 1017.51 1017.39 1017.27 1017.19 1017.11 1016.99 1016.87 1016.67 1016.51 1016.43 1016.31 1016.15 1016.11 1016.15 1016.19 1016.23 1016.19 1016.19 1016.23 1016.27
1020.15 1020.07 1020.03 1019.99 1019.83 1019.79 1019.71 1019.75 1019.71 1019.67 1019.51 1019.43 1019.43 1019.39 1019.19 1018.99 1018.95 1018.87 1018.71 1018.55 1018.35 1018.15 1017.95 1017.75 1017.63 1017.47 1017.31 1017.15 1017.03 1016.95 1016.83 1016.67 1016.51 1016.35 1016.23 1016.15 1016.15 1016.19 1016.19 1016.19 1016.15 1016.19
1020.67 1020.63 1020.55 1020.47 1020.31 1020.23 1020.11 1020.11 1020.11 1020.07 1019.95 1019.91 1019.87 1019.71 1019.59 1019.43 1019.31 1019.19 1019.03 1018.91 1018.71 1018.55 1018.31 1018.11 1017.95 1017.87 1017.75 1017.55 1017.31 1017.11 1016.95 1016.79 1016.59 1016.39 1016.27 1016.27 1016.19 1016.23 1016.19 1016.19 1016.23 1016.23
1021.07 1021.07 1020.99 1020.95 1020.79 1020.63 1020.55 1020.47 1020.43 1020.39 1020.31 1020.23 1020.23 1020.07 1019.95 1019.83 1019.79 1019.67 1019.51 1019.27 1019.11 1018.95 1018.79 1018.51 1018.31 1018.19 1018.15 1018.07 1017.83 1017.71 1017.55 1017.43 1017.31 1017.07 1016.71 1016.55 1016.51 1016.43 1016.39 1016.31 1016.27 1016.31
1021.47 1021.39 1021.35 1021.27 1021.19 1021.07 1020.99 1020.91 1020.83 1020.75 1020.71 1020.59 1020.51 1020.39 1020.27 1020.15 1020.07 1019.95 1019.83 1019.67 1019.47 1019.35 1019.23 1019.03 1018.79 1018.55 1018.47 1018.43 1018.27 1018.15 1017.91 1017.75 1017.67 1017.55 1017.39 1017.15 1016.95 1016.83 1016.71 1016.67 1016.55 1016.55
1021.79 1021.79 1021.71 1021.63 1021.55 1021.47 1021.43 1021.31 1021.23 1021.15 1021.07 1020.95 1020.75 1020.67 1020.51 1020.51 1020.35 1020.15 1019.99 1019.87 1019.75 1019.63 1019.51 1019.35 1019.15 1018.99 1018.83 1018.75 1018.63 1018.47 1018.23 1018.07 1018.03 1017.91 1017.83 1017.75 1017.51 1017.39 1017.35 1017.31 1017.19 1016.95
1022.03 1022.07 1021.99 1021.91 1021.83 1021.79 1021.75 1021.63 1021.55 1021.43 1021.31 1021.23 1021.07 1020.91 1020.83 1020.79 1020.71 1020.43 1020.27 1020.07 1019.91 1019.75 1019.63 1019.55 1019.43 1019.35 1019.23 1019.07 1018.91 1018.75 1018.59 1018.43 1018.31 1018.19 1018.11 1018.11 1018.03 1017.95 1017.83 1017.67 1017.63 1017.55
1022.27 1022.27 1022.23 1022.15 1022.15 1022.03 1022.03 1021.83 1021.75 1021.63 1021.47 1021.43 1021.27 1021.11 1020.99 1021.03 1020.95 1020.75 1020.51 1020.27 1020.11 1020.03 1019.87 1019.75 1019.67 1019.59 1019.51 1019.31 1019.19 1018.99 1018.83 1018.67 1018.59 1018.47 1018.31 1018.23 1018.23 1018.19 1018.07 1017.99 1017.99 1017.91
1022.47 1022.43 1022.43 1022.39 1022.31 1022.23 1022.19 1022.03 1021.91 1021.83 1021.71 1021.63 1021.55 1021.47 1021.19 1021.07 1021.11 1020.95 1020.83 1020.63 1020.43 1020.19 1020.07 1019.95 1019.83 1019.71 1019.63 1019.51 1019.39 1019.19 1018.99 1018.83 1018.75 1018.67 1018.59 1018.51 1018.39 1018.31 1018.23 1018.23 1018.19 1018.19
1022.55 1022.59 1022.59 1022.55 1022.43 1022.39 1022.31 1022.19 1022.07 1021.91 1021.87 1021.83 1021.67 1021.63 1021.39 1021.19 1021.11 1021.07 1020.87 1020.87 1020.63 1020.47 1020.23 1020.11 1020.03 1019.87 1019.75 1019.71 1019.63 1019.39 1019.11 1018.91 1018.87 1018.83 1018.75 1018.67 1018.55 1018.43 1018.39 1018.31 1018.27 1018.27
1022.71 1022.71 1022.71 1022.67 1022.55 1022.47 1022.35 1022.19 1022.15 1022.03 1021.95 1021.87 1021.71 1021.71 1021.55 1021.39 1021.15 1021.03 1020.91 1020.83 1020.71 1020.51 1020.35 1020.23 1020.19 1020.11 1020.03 1019.91 1019.83 1019.63 1019.35 1019.07 1018.95 1018.91 1018.87 1018.79 1018.67 1018.55 1018.47 1018.43 1018.43 1018.39
1022.87 1022.79 1022.75 1022.63 1022.51 1022.43 1022.31 1022.23 1022.15 1022.11 1022.03 1021.91 1021.79 1021.67 1021.55 1021.43 1021.23 1021.07 1020.95 1020.83 1020.75 1020.63 1020.47 1020.31 1020.23 1020.19 1020.19 1020.19 1020.07 1019.83 1019.55 1019.23 1019.07 1019.03 1019.03 1018.99 1018.95 1018.87 1018.83 1018.75 1018.71 1018.59
1022.83 1022.79 1022.67 1022.55 1022.47 1022.39 1022.31 1022.23 1022.19 1022.11 1021.99 1021.91 1021.79 1021.71 1021.55 1021.43 1021.23 1021.03 1020.91 1020.87 1020.75 1020.67 1020.63 1020.47 1020.35 1020.27 1020.31 1020.35 1020.23 1019.91 1019.59 1019.39 1019.19 1019.15 1019.15 1019.15 1019.11 1019.07 1018.99 1018.91 1018.83 1018.75
1022.75 1022.67 1022.55 1022.47 1022.39 1022.27 1022.23 1022.15 1022.11 1022.07 1021.99 1021.87 1021.75 1021.59 1021.47 1021.35 1021.23 1021.03 1020.87 1020.79 1020.75 1020.75 1020.67 1020.59 1020.43 1020.27 1020.27 1020.27 1020.11 1019.87 1019.63 1019.47 1019.35 1019.27 1019.23 1019.27 1019.27 1019.19 1019.07 1018.95 1018.87 1018.79
1022.55 1022.51 1022.39 1022.35 1022.23 1022.15 1022.11 1022.07 1022.03 1021.99 1021.87 1021.75 1021.63 1021.47 1021.35 1021.23 1021.07 1021.03 1020.91 1020.75 1020.71 1020.71 1020.75 1020.71 1020.55 1020.31 1020.15 1020.07 1019.87 1019.67 1019.55 1019.51 1019.43 1019.35 1019.27 1019.19 1019.15 1019.11 1019.11 1019.07 1018.95 1018.91
1022.35 1022.31 1022.23 1022.15 1022.11 1022.07 1021.99 1021.95 1021.91 1021.87 1021.79 1021.63 1021.47 1021.35 1021.23 1021.11 1021.03 1020.95 1020.87 1020.67 1020.55 1020.55 1020.63 1020.63 1020.55 1020.35 1020.15 1019.95 1019.79 1019.63 1019.51 1019.43 1019.39 1019.43 1019.35 1019.27 1019.07 1019.03 1019.07 1019.07 1019.07 1019.03
1022.07 1022.03 1021.99 1021.95 1021.95 1021.91 1021.83 1021.83 1021.79 1021.71 1021.59 1021.47 1021.35 1021.19 1021.15 1021.11 1021.03 1020.95 1020.79 1020.63 1020.51 1020.47 1020.55 1020.55 1020.51 1020.35 1020.19 1019.95 1019.75 1019.59 1019.43 1019.35 1019.39 1019.43 1019.43 1019.27 1019.07 1019.03 1019.03 1019.07 1019.15 1019.19
1021.71 1021.75 1021.75 1021.71 1021.67 1021.59 1021.55 1021.51 1021.47 1021.35 1021.27 1021.15 1021.07 1020.99 1020.99 1020.99 1020.91 1020.83 1020.71 1020.63 1020.47 1020.43 1020.43 1020.51 1020.47 1020.35 1020.23 1019.91 1019.67 1019.51 1019.35 1019.27 1019.31 1019.39 1019.39 1019.31 1019.19 1019.07 1018.95 1018.95 1018.95 1018.99
1021.23 1021.27 1021.31 1021.27 1021.15 1021.07 1021.03 1020.99 1020.99 1020.95 1020.91 1020.83 1020.83 1020.83 1020.83 1020.79 1020.71 1020.67 1020.51 1020.39 1020.31 1020.27 1020.31 1020.35 1020.35 1020.23 1020.07 1019.83 1019.55 1019.35 1019.23 1019.19 1019.27 1019.35 1019.27 1019.15 1018.99 1018.87 1018.79 1018.75 1018.75 1018.83
1020.71 1020.67 1020.67 1020.67 1020.63 1020.59 1020.59 1020.63 1020.63 1020.63 1020.67 1020.63 1020.59 1020.51 1020.43 1020.39 1020.35 1020.31 1020.23 1020.15 1020.07 1020.07 1020.15 1020.11 1020.07 1019.99 1019.87 1019.67 1019.43 1019.23 1019.07 1019.15 1019.27 1019.23 1019.11 1018.91 1018.71 1018.59 1018.55 1018.55 1018.59 1018.71
1020.43 1020.43 1020.47 1020.43 1020.39 1020.39 1020.35 1020.35 1020.35 1020.39 1020.35 1020.31 1020.27 1020.23 1020.23 1020.19 1020.11 1020.03 1019.87 1019.83 1019.75 1019.79 1019.83 1019.87 1019.87 1019.75 1019.67 1019.55 1019.39 1019.15 1018.99 1019.15 1019.23 1019.19 1019.07 1018.87 1018.63 1018.43 1018.35 1018.35 1018.47 1018.51
1020.59 1020.55 1020.55 1020.47 1020.39 1020.35 1020.23 1020.19 1020.07 1020.03 1020.03 1019.99 1019.95 1019.95 1019.95 1019.83 1019.75 1019.75 1019.63 1019.55 1019.51 1019.47 1019.47 1019.55 1019.47 1019.39 1019.35 1019.31 1019.19 1018.99 1018.83 1018.95 1019.03 1019.03 1018.95 1018.75 1018.51 1018.27 1018.15 1018.19 1018.23 1018.23
1020.55 1020.51 1020.43 1020.39 1020.35 1020.27 1020.19 1020.15 1020.07 1019.95 1019.87 1019.83 1019.75 1019.71 1019.59 1019.59 1019.55 1019.55 1019.47 1019.35 1019.23 1019.15 1019.11 1019.11 1019.11 1019.11 1019.03 1018.99 1018.95 1018.79 1018.59 1018.63 1018.71 1018.79 1018.71 1018.55 1018.31 1018.07 1017.95 1017.95 1017.95 1017.87
1020.83 1020.79 1020.71 1020.67 1020.59 1020.47 1020.35 1020.19 1020.03 1019.87 1019.79 1019.71 1019.63 1019.55 1019.43 1019.35 1019.31 1019.23 1019.11 1018.99 1018.91 1018.83 1018.79 1018.79 1018.79 1018.75 1018.75 1018.63 1018.63 1018.55 1018.35 1018.31 1018.39 1018.51 1018.43 1018.23 1018.07 1017.91 1017.79 1017.67 1017.63 1017.59
Wind_Speed
8 8 8 8 8 7 8 9 8 8 8 8 7 7 7 7 8 9 9 9 10 9 9 8 6 4 4 3 3 2 3 3 1 1 2 3 3 3 4 3 4 4
8 8 7 6 7 7 7 7 7 7 7 8 7 7 7 7 8 8 8 8 8 8 8 8 8 8 7 6 6 4 3 4 4 2 2 3 3 2 3 3 3 3
7 8 8 8 7 7 7 6 7 6 6 6 6 7 7 7 8 9 8 8 8 8 7 7 6 6 6 6 6 6 4 4 5 3 2 2 2 2 3 2 2 3
7 7 6 6 6 6 6 6 7 6 6 7 8 7 6 6 7 8 8 8 8 8 8 8 9 7 7 5 4 4 5 5 4 3 3 3 3 3 4 2 2 2
7 7 6 6 5 5 6 6 7 6 7 6 6 7 6 7 7 7 7 7 8 7 7 8 8 8 8 8 8 5 5 5 5 4 2 2 3 2 3 2 2 2
6 6 6 6 6 6 6 7 7 7 7 7 7 6 6 7 7 7 7 7 7 7 8 7 7 7 8 8 7 7 6 6 7 8 6 5 5 5 4 3 2 3
6 6 7 5 7 7 6 7 6 6 6 5 5 6 6 6 6 6 6 6 6 7 7 6 7 7 7 6 6 6 7 6 8 8 8 7 6 7 6 5 4 4
6 6 5 5 6 7 7 7 6 6 6 6 5 6 6 6 6 5 5 5 5 6 6 6 6 7 7 5 6 7 6 6 7 7 7 7 7 6 7 7 7 6
4 4 5 6 6 6 7 6 6 6 6 5 6 5 5 5 5 5 5 5 5 5 6 6 7 6 5 5 5 6 6 5 5 5 5 6 6 6 6 6 6 6
4 4 5 5 4 4 5 5 5 5 5 5 5 4 4 4 5 5 5 5 5 5 5 5 6 5 6 5 5 5 5 4 5 5 4 4 4 4 5 4 5 5
4 4 4 4 4 3 4 4 4 4 4 4 4 5 4 3 3 4 3 4 4 4 4 5 5 4 5 5 5 5 4 3 4 4 4 4 3 3 4 3 4 4
3 3 4 4 3 3 3 3 3 3 3 3 3 4 4 3 2 3 3 3 3 3 4 4 4 4 4 4 5 5 5 3 3 3 3 3 3 3 3 3 2 3
3 3 3 2 2 3 3 3 3 3 3 3 3 3 3 4 3 2 3 2 3 3 3 3 3 3 3 4 4 5 5 4 3 3 3 4 4 4 3 3 3 3
2 2 2 2 2 2 2 2 2 3 3 3 3 4 4 4 4 3 3 2 3 3 3 3 3 3 3 4 5 5 5 4 3 3 3 3 4 4 4 3 3 3
2 2 2 2 2 2 2 3 3 3 3 3 3 3 3 4 4 4 3 3 3 3 3 3 3 2 1 3 5 6 6 5 4 3 3 3 3 3 3 3 2 2
3 4 3 3 3 3 3 3 3 3 3 3 3 3 3 3 3 4 3 3 3 3 3 3 3 2 3 6 7 5 5 4 4 4 3 3 4 4 3 3 2 2
4 4 4 4 4 4 3 4 4 3 3 4 4 3 3 3 3 3 4 3 2 2 3 3 3 4 7 8 9 11 7 4 4 4 4 5 5 5 3 2 2 2
4 4 4 4 4 4 4 4 4 4 4 4 4 4 4 3 3 3 4 4 3 2 2 3 3 6 9 10 10 11 10 6 3 3 4 6 6 4 3 2 2 2
4 4 5 5 5 5 5 4 4 4 4 4 5 4 3 4 4 4 4 4 4 3 3 4 3 7 9 11 11 11 11 9 3 3 4 6 4 3 3 3 2 3
5 5 5 6 6 5 5 5 5 5 5 5 4 4 4 4 4 5 5 5 5 4 4 4 5 6 10 12 12 12 11 10 3 4 5 6 6 5 4 4 3 3
5 5 6 6 5 5 4 5 4 4 4 4 4 5 5 6 6 5 5 5 5 5 4 5 5 9 11 12 12 12 12 9 3 4 4 5 5 5 5 5 4 3
5 5 5 5 4 4 4 4 4 4 5 5 5 5 4 4 4 5 5 6 6 5 5 6 6 10 12 12 13 12 12 4 3 5 5 6 6 6 4 4 3 3
3 4 4 4 4 4 4 4 4 5 5 4 5 5 5 5 5 5 5 5 6 5 6 6 6 8 11 12 12 14 10 3 4 5 5 6 6 5 5 4 4 4
4 4 4 5 4 5 5 4 4 4 4 3 4 5 6 6 5 5 5 5 5 6 6 7 7 8 11 11 13 14 11 6 5 5 6 6 7 5 4 4 5 11
4 4 4 4 5 5 5 5 5 5 5 4 5 5 6 5 5 6 7 6 6 7 8 9 7 8 11 12 14 15 12 5 5 5 6 6 6 6 5 5 6 8
5 5 5 6 6 6 6 6 5 6 6 6 6 6 6 5 5 6 7 6 6 6 6 6 7 7 8 13 14 16 16 8 5 6 7 7 6 6 5 5 4 5
Wind_Direction
27 26 24 27 30 25 21 21 19 27 26 21 22 14 16 3 6 10 7 7 8 7 3 2 1 1 356 357 348 3 336 304 269 225 240 217 229 227 233 222 225 230
28 29 29 30 31 30 29 26 25 27 25 24 15 13 9 9 7 10 6 6 7 9 9 8 5 2 357 355 348 343 338 333 328 346 354 325 287 278 262 243 231 233
28 29 30 30 29 27 31 26 32 27 30 24 24 22 12 10 10 6 10 8 8 5 8 3 3 357 353 351 355 346 342 338 328 326 329 306 307 291 285 259 240 242
27 28 30 27 25 30 31 35 28 27 23 27 24 16 14 12 12 8 9 9 11 10 10 9 9 4 356 348 338 338 335 330 319 325 316 307 302 301 293 291 261 258
25 23 23 23 24 27 36 39 35 27 28 28 22 16 13 14 12 12 11 8 11 10 10 12 11 9 3 1 356 349 339 324 325 316 318 317 309 298 275 280 287 275
26 25 21 26 22 30 34 36 32 28 24 25 21 14 16 14 16 13 10 11 9 10 10 9 11 13 10 5 7 12 9 8 359 359 355 358 349 347 338 314 320 317
23 21 20 21 27 29 32 31 29 28 23 18 18 21 17 15 19 14 11 9 12 12 10 8 8 15 13 6 9 7 9 11 9 4 1 356 2 351 350 353 349 344
23 17 16 18 28 27 27 26 23 20 18 7 19 15 18 13 12 12 11 13 16 16 14 13 13 13 10 8 9 8 8 16 12 9 7 1 4 3 3 4 354 349
25 21 15 17 24 25 21 21 17 15 15 13 7 10 11 13 1 6 8 14 19 19 18 16 15 10 3 8 2 6 5 5 10 8 13 8 4 360 359 357 0 359
20 19 17 18 20 18 17 18 13 10 9 8 5 353 10 5 355 353 2 9 17 17 18 19 14 7 3 1 360 1 360 1 359 358 360 8 3 354 358 357 350 346
15 15 16 8 15 8 14 6 2 7 358 353 3 343 346 3 354 349 358 355 2 8 12 13 9 2 359 357 352 349 344 356 355 359 354 354 349 347 339 351 339 335
13 11 8 4 4 1 3 357 356 359 354 343 348 344 330 333 3 351 347 359 341 356 356 2 0 354 355 357 344 337 337 342 342 346 342 335 331 334 339 324 318 312
3 356 354 348 347 345 338 344 346 335 335 329 322 327 321 319 329 358 322 8 328 346 338 347 350 346 347 348 338 329 329 333 332 344 340 337 333 332 339 348 348 347
323 317 314 311 305 317 320 314 317 315 310 310 315 318 324 322 319 332 325 341 334 336 324 330 331 337 349 341 330 323 317 326 328 322 325 327 327 330 330 336 336 328
291 299 286 287 293 284 289 299 299 297 299 301 310 310 307 309 311 305 317 332 321 328 329 320 320 313 9 324 320 317 320 320 315 311 307 298 303 302 290 291 300 302
272 271 271 278 280 277 272 271 278 285 287 287 280 281 283 287 296 297 290 293 311 305 321 320 304 303 289 305 305 302 308 316 309 301 289 273 268 267 269 275 290 315
258 268 266 264 265 267 270 267 267 267 265 269 269 268 278 274 274 285 285 268 263 277 287 289 291 291 287 289 302 305 304 303 300 291 288 279 263 254 255 274 287 319
251 258 262 268 268 264 259 257 260 266 269 270 273 278 274 284 289 280 278 269 257 251 258 271 282 285 286 287 293 296 293 286 286 289 282 273 261 249 252 270 300 314
244 245 254 259 259 255 252 249 252 257 262 266 266 261 266 272 272 274 275 281 271 250 254 262 271 280 281 285 286 288 288 287 272 268 276 277 265 256 243 240 239 256
239 237 241 246 244 241 235 233 235 240 242 245 245 253 254 254 259 259 261 262 255 243 247 256 260 270 275 278 283 284 286 287 275 269 266 268 273 271 262 250 249 253
234 227 232 238 238 236 233 235 238 247 251 248 241 241 238 238 242 250 251 245 246 240 234 253 257 264 271 274 276 280 281 285 288 278 271 266 258 257 260 258 253 257
245 238 239 239 241 245 247 249 249 248 253 251 250 251 252 248 252 244 247 249 246 237 237 253 258 262 270 273 274 277 280 281 277 270 262 257 251 241 243 244 241 240
288 291 289 284 279 274 267 263 261 265 263 255 251 247 242 244 244 240 239 237 237 230 232 244 252 257 263 266 267 269 276 274 269 272 270 269 262 249 236 231 231 237
327 316 309 301 299 289 278 269 265 266 266 258 251 248 250 244 245 256 253 246 241 239 232 239 247 248 252 258 262 266 266 246 233 244 249 249 255 248 228 219 224 237
308 304 297 296 290 287 290 289 280 268 257 258 262 263 258 247 251 258 257 247 242 239 232 234 241 244 246 249 255 263 264 246 239 239 249 252 248 249 238 224 234 239
329 328 323 321 315 307 305 293 284 277 269 267 267 259 258 252 250 245 249 244 237 237 240 239 246 247 242 246 249 252 256 248 214 223 239 243 249 242 251 263 246 244